Regional Weather Roundup
Issued by NWS

Home | Current Version | Previous Version | Graphics & Text | Print | Product List | Glossary On
Versions: 1 2 3 4 5 6 7 8 9 10 11 12 13 14 15 16 17 18 19 20 21 22 23 24 25 26 27 28 29 30 31 32 33 34 35 36 37 38 39 40 41 42 43 44 45 46 47 48 49 50
000
ASUS43 KMKX 032000
RWRWI

WISCONSIN REGIONAL WEATHER ROUNDUP
NATIONAL WEATHER SERVICE MILWAUKEE/SULLIVAN WI
300 PM CDT TUE MAY 03 2016

NOTE: "FAIR" INDICATES FEW OR NO CLOUDS BELOW 12,000 FEET WITH NO
SIGNIFICANT WEATHER AND/OR OBSTRUCTIONS TO VISIBILITY.

WIZ001-002-006>008-014>016-023>028-032100-
NORTHWEST WISCONSIN

CITY           SKY/WX    TMP DP  RH WIND       PRES   REMARKS
SUPERIOR ARPT  CLOUDY    72  35  25 N17G25    29.66S
ASHLAND        PTSUNNY   59  45  59 CALM      29.69F
HAYWARD        CLOUDY    62  36  37 VRB7G18   29.68S
SIREN          PTSUNNY   68  36  30 W17G26    29.69F
CUMBERLAND     CLOUDY    63  34  34 W20G31    29.71F
RICE LAKE      CLOUDY    65  33  30 W12G26    29.73F
CHETEK         LGT RAIN  64  37  35 W15G24    29.72F
LADYSMITH      CLOUDY    62  37  39 W16G24    29.73S
EAU CLAIRE     NOT AVBL
MENOMONIE      PTSUNNY   70  36  29 SW18G28   29.74F
NEW RICHMOND   CLOUDY    66  35  31 W21G30    29.74F
OSCEOLA        CLOUDY    69  39  33 SW23G32   29.75F
$$

WIZ003>005-009-010-017-018-032100-
NORTH CENTRAL WISCONSIN

CITY           SKY/WX    TMP DP  RH WIND       PRES   REMARKS
MANITOWISH WTR RAIN      50  44  80 W7        29.70F
ARBOR VITAE    RAIN      55  42  62 NW10G28   29.72R
WOODRUFF       RAIN      55  42  62 NW10G28   29.72R
RHINELANDER    LGT RAIN  58  37  45 W23G29    29.71R
EAGLE RIVER    RAIN      53  39  59 NW12      29.71R
LAND O LAKES   LGT RAIN  49  43  80 W7G16     29.72S
PHILLIPS       LGT RAIN  59  36  42 W7G23     29.70R
TOMAHAWK       CLOUDY    61  31  32 W12G26    29.70S
MEDFORD        CLOUDY    63  34  34 W21G26    29.71F
MERRILL        CLOUDY    64  34  32 W17       29.69F
$$

WIZ029-030-035-036-043>047-032100-
CENTRAL WISCONSIN

CITY           SKY/WX    TMP DP  RH WIND       PRES   REMARKS
WAUSAU         CLOUDY    68  33  27 SW16G30   29.67F
MOSINEE        MOSUNNY   66  30  26 W22G31    29.72F
MARSHFIELD     PTSUNNY   68  32  26 W21G26    29.71F
STEVENS POINT  CLOUDY    65  31  27 W18G28    29.72F
WAUPACA        MOSUNNY   72  30  20 W14G26    29.73F
WAUTOMA        CLOUDY    69  32  25 SW15G28   29.74F
WISC RAPIDS    CLOUDY    69  28  21 W16G26    29.73F
CAMP DOUGLAS   NOT AVBL
$$

WIZ011>013-019>022-031-037>040-048>050-032100-
NORTHEAST WISCONSIN

CITY           SKY/WX    TMP DP  RH WIND       PRES   REMARKS
ANTIGO         CLOUDY    61  35  38 W17       29.70F
SHAWANO        CLOUDY    70  32  24 SW13G22   29.70F
OCONTO         PTSUNNY   68  33  27 W17G25    29.68F
STURGEON BAY   CLOUDY    66  34  30 SW16      29.70F
GREEN BAY      CLOUDY    69  36  29 W13G25    29.70F
MANITOWOC      NOT AVBL
APPLETON       PTSUNNY   68  28  22 W14G25    29.71F
CLINTONVILLE   CLOUDY    68  32  26 W13G22    29.70F
OSHKOSH        CLOUDY    67  33  28 W8G21     29.73F
$$

WIZ032>034-041-042-053>061-032100-
SOUTHWEST WISCONSIN

CITY           SKY/WX    TMP DP  RH WIND       PRES   REMARKS
LA CROSSE      CLOUDY    70  36  28 W22       29.77F
SPARTA         CLOUDY    68  35  28 W14G20    29.78F
VIROQUA        CLOUDY    65  36  33 W14G23    29.81F
BOSCOBEL       LGT RAIN  68  37  32 W12G22    29.82F
PRAIRIE DU CHI CLOUDY    68  34  28 W15G21    29.83F
PLATTEVILLE    MOSUNNY   66  38  35 SW16G23   29.85F
$$

WIZ056-057-062-063-064-067-068-032100-
SOUTH CENTRAL WISCONSIN

CITY           SKY/WX    TMP DP  RH WIND       PRES   REMARKS
REEDSBURG      CLOUDY    67  38  35 W15       29.79F
BARABOO/DELLS  CLOUDY    67  32  27 W13G23    29.78F
LONE ROCK      NOT AVBL
MINERAL POINT  PTSUNNY   64  34  32 W20       29.83F
MADISON        CLOUDY    65  34  31 SW9       29.79F
MIDDLETON      CLOUDY    67  37  33 W14G25    29.81F
WATERTOWN      PTSUNNY   66  37  34 SW13G22   29.80F
MONROE         MOSUNNY   64  34  32 W18G30    29.84F
JANESVILLE     PTSUNNY   70  36  28 W15G21    29.82F
$$

WIZ051-052-058>065-066-070>072-032100-
SOUTHEAST WISCONSIN

CITY           SKY/WX    TMP DP  RH WIND       PRES   REMARKS
MILWAUKEE      PTSUNNY   67  31  26 W15G22    29.80F
WAUKESHA       PTSUNNY   63  34  34 W18       29.81F
MILWAUKEE/TIMM PTSUNNY   66  30  26 W13       29.80F
RACINE         CLOUDY    66  33  29 W13G18    29.82F
BURLINGTON     PTSUNNY   67  35  31 W13G20    29.82F
KENOSHA        PTSUNNY   68  39  34 W16G25    29.81F
FOND DU LAC    CLOUDY    68  35  29 SW18G24   29.75F
SHEBOYGAN      CLOUDY    68  36  30 W15G23    29.75F
WEST BEND      CLOUDY    64  32  29 W13G25    29.79F
JUNEAU         CLOUDY    64  37  37 SW15      29.80F
$$

LSZ147-162-032100-
LAKE SUPERIOR

STATION/POSITION TIME  TEMP    WIND        PRES    WAVE
                       AIR SEA DIR/SP/G            HT/PER
                 (UTC) (F)     (DEG/KT/KT) (MB)    (FT/S)
W MID LAKE BUOY  1850   42 37  230/ 14/ 16 1004.0F   3/ 5
DEVILS ISLAND    1900   46     220/ 11/ 14 1004.9F
SAXON HARBOR     1900          360/  9     1006.1R
$$

LMZ867-665-643>646-032100-
LAKE MICHIGAN

STATION/POSITION TIME  TEMP    WIND        PRES    WAVE
                       AIR SEA DIR/SP/G            HT/PER
                 (UTC) (F)     (DEG/KT/KT) (MB)    (FT/S)
CHAMBERS ISLAND  1900   62     200/  5/  9 1005.1
N MID LAKE BUOY  1850   42 39  180/ 17/ 21 1005.1F   2/ 4
NORTHPORT PIER   1900   67     210/  8/ 14 1004.7F
ALGOMA LAKESHORE 1915          260/ 15/ 20   N/A
KEWAUNEE LAKESHO 1900   67     250/ 14/ 18 1006.0F
SHEBOYGAN LAKESH 1900   66     260/ 14/ 18 1008.4F
PORT WASHINGTON  1900   68     270/  7/ 19 1009.5F
S MID LAKE BUOY  1850   45 42  170/ 10/ 12 1010.9F   1
KENOSHA   LAKESH 1900   65     230/ 11/ 17 1010.2F
$$

TC  - TEMPERATURE IN CELSIUS
VSB - VISIBILITY IN STATUTE MILES
WCI - WIND CHILL INDEX
HX  - HEAT INDEX





USA.gov is the U.S. government's official web portal to all federal, state and local government web resources and services.